This demonstration page uses our WeatherBlox Daily Observations layout. Learn more.

Left ArrowRight Arrow

Hourly Observations for February 11, 2015

Temp ( °F °C ) Dew Point ( °F °C ) Humidity (%) Winds ( mph kmh ) Pressure ( in mb ) Visibility ( mi km ) Precip ( " mm )
12:53 am 00:53 Clear 51 10.6 41 5 69 69 NW 5 7 30.12 1020 10 16 0.00 0.00
1:53 am 01:53 Clear 47 8.3 41 5 80 80 Calm 30.11 1020 10 16 0.00 0.00
2:53 am 02:53 Clear 45 7.2 40 4.4 83 83 Calm 30.10 1019 10 16 0.00 0.00
3:53 am 03:53 Clear 46 7.8 39 3.9 77 77 Calm 30.11 1020 10 16 0.00 0.00
4:53 am 04:53 Clear 42 5.6 39 3.9 89 89 Calm 30.12 1020 10 16 0.00 0.00
5:53 am 05:53 Clear 43 6.1 40 4.4 89 89 Calm 30.13 1020 10 16 0.00 0.00
6:53 am 06:53 Clear 42 5.6 39 3.9 89 89 Calm 30.15 1021 10 16 0.00 0.00
7:53 am 07:53 Sunny 43 6.1 40 4.4 89 89 Calm 30.17 1022 10 16 0.00 0.00
8:53 am 08:53 Sunny 51 10.6 41 5 69 69 Calm 30.18 1022 10 16 0.00 0.00
9:53 am 09:53 Sunny 58 14.4 45 7.2 62 62 Calm 30.17 1022 10 16 0.00 0.00
10:53 am 10:53 Sunny 63 17.2 40 4.4 43 43 N 7 11 30.17 1022 10 16 0.00 0.00
11:53 am 11:53 Sunny 65 18.3 39 3.9 39 39 N 7 11 30.16 1021 10 16 0.00 0.00
12:53 pm 12:53 Sunny 68 20 39 3.9 35 35 NNW 7 11 30.14 1021 N/A 0.00 0.00
1:53 pm 13:53 Sunny 71 21.7 39 3.9 31 31 N 3 6 30.11 1020 10 16 0.00 0.00
2:53 pm 14:53 Sunny 70 21.1 39 3.9 32 32 Calm 30.11 1020 10 16 0.00 0.00
3:53 pm 15:53 Sunny 69 20.6 46 7.8 44 44 SSE 5 7 30.11 1020 10 16 0.00 0.00
4:53 pm 16:53 Sunny 67 19.4 46 7.8 47 47 Calm 30.13 1020 10 16 0.00 0.00
5:53 pm 17:53 Clear 62 16.7 44 6.7 52 52 Calm 30.13 1020 10 16 0.00 0.00
6:53 pm 18:53 Clear 58 14.4 49 9.4 72 72 Calm 30.15 1021 10 16 0.00 0.00
7:53 pm 19:53 Clear 52 11.1 47 8.3 83 83 E 5 7 30.18 1022 10 16 0.00 0.00
8:53 pm 20:53 Clear 52 11.1 46 7.8 80 80 Calm 30.19 1023 10 16 0.00 0.00
9:53 pm 21:53 Clear 52 11.1 46 7.8 80 80 Calm 30.20 1023 10 16 0.00 0.00
10:53 pm 22:53 Clear 51 10.6 46 7.8 83 83 Calm 30.21 1023 10 16 0.00 0.00
11:53 pm 23:53 Clear 49 9.4 45 7.2 86 86 N 3 6 30.22 1023 10 16 0.00 0.00

Powered by AerisWeather